Regional Weather Roundup
Issued by NWS

Home | Current Version | Previous Version | Graphics & Text | Print | Product List | Glossary On
Versions: 1 2 3 4 5 6 7 8 9 10 11 12 13 14 15 16 17 18 19 20 21 22 23 24 25 26 27 28 29 30 31 32 33 34 35 36 37 38 39 40 41 42 43 44 45 46 47 48 49 50
000
ASUS43 KOAX 221210
RWRNE

WEATHER ROUNDUP FOR NEBRASKA
NATIONAL WEATHER SERVICE OMAHA NE
600 AM CST THU FEB 22 2018

NOTES: SATELLITE DATA IS BEING USED TO AUGMENT CLOUD COVER ABOVE
       12000 FEET.
       "FAIR" INDICATES FEW OR NO CLOUDS BELOW 12,000 FEET WITH NO
       SIGNIFICANT WEATHER AND/OR OBSTRUCTIONS TO VISIBILITY.


NEZ001>004-019>022-054>056-221300-
NEBRASKA PANHANDLE

CITY           SKY/WX    TMP DP  RH WIND       PRES   REMARKS
SCOTTSBLUFF    FAIR       5   1  83 SE5       30.11R WCI  -4
6HR MIN TEMP:   4; 6HR MAX TEMP:  12;

ALLIANCE       MOCLDY     2   0  91 CALM      30.11R
6HR MIN TEMP:   1; 6HR MAX TEMP:  11;

CHADRON        MOCLDY    12   5  73 CALM      30.12F
6HR MIN TEMP:  12; 6HR MAX TEMP:  20;

GORDON         PTSUNNY    4   0  82 N3        30.14S
6HR MIN TEMP:   4; 6HR MAX TEMP:  15;

KIMBALL        CLOUDY    11   9  90 CALM      30.04S
SIDNEY         CLOUDY    19  13  77 SE8       30.09S WCI   9
6HR MIN TEMP:   5; 6HR MAX TEMP:  19;

$$

NEZ057>060-069>072-079>082-221300-
SOUTHWEST NEBRASKA

CITY           SKY/WX    TMP DP  RH WIND       PRES   REMARKS
NORTH PLATTE   CLOUDY    20  15  81 SE10      30.23F WCI   9
6HR MIN TEMP:  20; 6HR MAX TEMP:  21; 6HR PCP: TRACE;

IMPERIAL       CLOUDY    20  12  71 SE9       30.17F WCI   9
6HR MIN TEMP:  17; 6HR MAX TEMP:  22;

LEXINGTON      CLOUDY    22  16  76 E9        30.28F WCI  12
MCCOOK         CLOUDY    22  11  62 E10       30.22F WCI  11
6HR MIN TEMP:  22; 6HR MAX TEMP:  25;

OGALLALA       CLOUDY    21  13  71 SE7       30.18F WCI  13
$$

NEZ005>010-023>029-035>040-094-221300-
NORTH CENTRAL NEBRASKA

CITY           SKY/WX    TMP DP  RH WIND       PRES   REMARKS
VALENTINE      FAIR      13   8  81 CALM      30.25S
6HR MIN TEMP:  10; 6HR MAX TEMP:  16;

AINSWORTH      FAIR      15  14  94 S7        30.26S WCI   6
BROKEN BOW     CLOUDY    20  15  81 SE10      30.27F WCI   9
6HR MIN TEMP:  20; 6HR MAX TEMP:  21; 6HR PCP: TRACE;

O`NEILL        MIX PCPN  19  17  93 SE6       30.34F WCI  11
ORD            FLURRIES  19  17  92 SE7       30.31F WCI  10
6HR MIN TEMP:  19; 6HR MAX TEMP:  20; 6HR PCP: TRACE;

THEDFORD         N/A     20  18  89 SE6       30.24R WCI  13
$$

NEZ041-046>049-061>064-073>077-083>087-221300-
SOUTH CENTRAL NEBRASKA

CITY           SKY/WX    TMP DP  RH WIND       PRES   REMARKS
GRAND ISLAND   CLOUDY    21  17  84 E9        30.35F WCI  11
6HR MIN TEMP:  21; 6HR MAX TEMP:  22; 6HR PCP:  0.01;

AURORA         CLOUDY    20  18  90 E9        30.36F WCI   9
HASTINGS       CLOUDY    20  17  88 E9        30.35F WCI   9
6HR MIN TEMP:  20; 6HR MAX TEMP:  22; 6HR PCP: TRACE;

HEBRON         FLURRIES  23  21  92 E6        30.37F WCI  16
HOLDREGE       CLOUDY    21  17  84 E13       30.30S WCI   8
KEARNEY        CLOUDY    19  18  93 E12       30.33F WCI   7
YORK           CLOUDY    19  19 100 E10       30.38S WCI   8
$$

NEZ011>018-030>034-042>045-221300-
NORTHEAST NEBRASKA

CITY           SKY/WX    TMP DP  RH WIND       PRES   REMARKS
NORFOLK        CLOUDY    20  18  92 E10       30.37F WCI   9
6HR MIN TEMP:  20; 6HR MAX TEMP:  20; 6HR PCP:  0.01;

ALBION         CLOUDY    22  19  87 SE9       30.37S WCI  11
BLAIR          LGT SNOW  22  20  91 NE8       30.41F WCI  13
COLUMBUS       FLURRIES  20  18  92 E10       30.41F WCI   9
FREMONT        FLURRIES  21  19  91 E6        30.43F WCI  14
TEKAMAH        CLOUDY    21  19  92 NE6       30.45F WCI  13
6HR MIN TEMP:  20; 6HR MAX TEMP:  23; 6HR PCP:  0.04;

WAYNE          CLOUDY    20  19  96 E5        30.42F WCI  14
$$

NEZ050>053-065>068-078-088>093-221300-
SOUTHEAST NEBRASKA

CITY           SKY/WX    TMP DP  RH WIND       PRES   REMARKS
LINCOLN        CLOUDY    22  19  89 NE7       30.42F FOG     WCI  13
6HR MIN TEMP:  22; 6HR MAX TEMP:  23; 6HR PCP:  0.04;

OMAHA EPPLEY   SNOW      23  20  88 NE8       30.45F VSB 1/2 WCI  14
6HR MIN TEMP:  22; 6HR MAX TEMP:  24; 6HR PCP:  0.04;

BEATRICE       LGT SNOW  24  22  91 E7        30.39F WCI  16
FALLS CITY     MIX PCPN  26  24  92 CALM      30.42R FOG
6HR MIN TEMP:  24; 6HR MAX TEMP:  26;

NEBRASKA CITY  LGT SNOW  23  23 100 NE7       30.41F WCI  15
PLATTSMOUTH    LGT SNOW  23  22  95 NE10      30.41F WCI  12
$$

NEZ044-045-051>053-067-221300-
OMAHA AREA

CITY           SKY/WX    TMP DP  RH WIND       PRES   REMARKS
OMAHA EPPLEY   SNOW      23  20  88 NE8       30.45F VSB 1/2 WCI  14
6HR MIN TEMP:  22; 6HR MAX TEMP:  24; 6HR PCP:  0.04;

BLAIR          LGT SNOW  22  20  91 NE8       30.41F WCI  13
FREMONT        FLURRIES  21  19  91 E6        30.43F WCI  14
MILLARD        LGT SNOW  24  22  89 NE3       30.43F VSB 1
OFFUTT AFB     LGT SNOW  25  19  80 NE9       30.43F WCI  15
PLATTSMOUTH    LGT SNOW  23  22  95 NE10      30.41F WCI  12
WAHOO          PTSUNNY   21  19  89 NE7       30.43S WCI  13
$$




USA.gov is the U.S. government's official web portal to all federal, state and local government web resources and services.